Date,TemperatureHighF,TemperatureAvgF,TemperatureLowF,DewpointHighF,DewpointAvgF,DewpointLowF,HumidityHigh,HumidityAvg,HumidityLow,PressureMaxIn,PressureMinIn,WindSpeedMaxMPH,WindSpeedAvgMPH,GustSpeedMaxMPH,PrecipitationSumIn
2013-1-1,31.7,21.1,2.6,29.1,17.9,-0.3,93,87,80,28.92,28.92,9,3,17,0.00
2013-1-2,23.9,17.0,10.6,20.7,14.3,6.5,93,89,81,28.92,28.92,6,2,15,0.00
2013-1-3,27.4,22.8,10.5,25.0,20.4,6.4,93,90,83,28.92,28.92,9,5,14,0.00
2013-1-4,32.8,29.7,26.9,26.3,24.0,21.1,93,80,68,28.92,28.92,10,5,23,0.00
2013-1-5,32.9,29.5,22.0,27.9,25.0,17.3,88,83,73,28.92,28.92,9,3,22,0.01
2013-1-6,36.0,32.1,28.2,31.6,28.5,23.9,94,87,79,28.92,28.92,10,6,17,0.00
2013-1-7,33.3,26.2,21.1,31.8,23.9,17.8,94,91,84,28.92,28.92,8,2,15,0.01
2013-1-8,34.7,28.4,24.0,26.8,23.2,20.1,89,81,70,28.92,28.92,7,1,9,0.00
2013-1-9,45.8,35.5,25.3,37.8,28.7,19.9,86,76,61,28.92,28.92,14,6,23,0.01
2013-1-10,37.2,33.8,28.4,31.4,29.0,25.0,90,83,75,28.92,28.92,7,2,20,0.00
2013-1-11,38.4,35.6,30.8,36.2,31.1,26.6,93,84,72,28.92,28.92,21,13,32,0.19
2013-1-12,47.6,42.1,37.8,46.0,40.6,36.2,95,94,93,28.92,28.92,11,6,18,0.00
2013-1-13,55.1,49.2,43.2,52.3,47.3,41.6,94,93,90,28.92,28.92,19,9,29,0.00
2013-1-14,52.4,38.0,28.3,50.4,33.6,23.7,94,84,72,28.92,28.92,13,5,21,0.02
2013-1-15,31.5,28.6,26.1,25.2,23.7,22.5,88,82,73,28.92,28.92,3,0,6,0.00
2013-1-16,32.8,29.2,27.4,29.3,26.8,23.2,94,91,81,28.92,28.92,11,6,16,0.00
2013-1-17,33.1,25.3,17.5,29.5,21.6,14.9,92,86,78,28.92,28.92,10,3,17,0.00
2013-1-18,27.6,17.7,3.5,16.6,12.0,1.0,93,79,61,28.92,28.92,18,6,26,0.00
2013-1-19,45.2,38.0,27.8,31.5,24.3,16.1,64,58,52,28.92,28.92,18,12,26,0.00
2013-1-20,44.8,31.1,19.1,34.0,21.6,11.9,89,68,51,28.92,28.92,18,8,27,0.01
2013-1-21,21.8,18.0,9.0,18.4,12.8,6.4,92,81,67,28.92,28.92,6,2,12,0.00
2013-1-22,13.8,9.1,5.0,10.4,1.4,-1.3,86,71,57,28.92,28.92,7,4,19,0.00
2013-1-23,9.4,5.2,0.3,5.8,0.8,-4.7,88,82,74,28.92,28.92,5,1,11,0.00
2013-1-24,13.0,6.6,-2.2,7.8,2.8,-5.4,90,84,71,28.92,28.92,7,3,16,0.00
2013-1-25,14.4,10.6,2.4,10.9,7.6,-0.3,91,87,78,28.92,28.92,5,1,14,0.00
2013-1-26,18.6,8.1,-3.1,14.2,4.9,-5.8,92,87,76,28.92,28.92,3,0,5,0.03
2013-1-27,24.0,17.0,7.0,19.5,13.9,4.7,93,88,77,28.92,28.92,4,1,8,0.07
2013-1-28,37.6,29.6,21.9,36.3,26.5,15.7,95,88,75,28.92,28.92,17,8,26,0.01
2013-1-29,48.2,40.3,34.3,46.6,38.9,33.0,95,95,94,28.92,28.92,11,4,18,0.33
2013-1-30,57.7,52.6,48.2,54.8,50.4,46.6,94,92,89,28.92,28.92,25,16,38,0.18
2013-1-31,53.5,32.1,19.1,51.5,27.5,17.2,94,83,66,28.92,28.92,17,8,36,0.58
2013-2-1,21.1,18.6,16.5,17.6,13.5,10.7,91,80,72,18.39,18.39,7,4,18,0.00
2013-2-2,18.5,16.0,12.7,15.9,11.6,7.5,91,83,74,18.39,18.39,13,7,20,0.00
2013-2-3,23.4,16.9,8.7,19.7,14.3,6.6,93,90,78,18.39,18.39,10,2,14,0.00
2013-2-4,20.2,18.4,16.6,15.3,12.9,10.0,89,79,67,18.39,18.39,7,3,16,0.00
2013-2-5,25.8,18.3,14.7,19.6,15.2,12.6,91,87,77,18.39,18.39,6,2,11,0.00
2013-2-6,25.8,20.5,9.2,23.8,15.1,5.9,93,80,65,18.39,18.39,8,4,20,0.00
2013-2-7,29.8,21.1,8.0,21.3,14.7,4.9,90,77,65,18.39,18.39,11,5,23,0.00
2013-2-8,33.1,29.7,22.3,30.5,26.8,19.7,94,89,73,18.39,18.39,16,8,31,0.01
2013-2-9,21.5,15.9,6.3,20.0,14.2,4.2,94,93,91,18.39,18.39,11,6,20,0.00
2013-2-10,33.7,20.8,4.2,25.4,15.1,2.2,94,80,53,18.39,18.39,19,5,31,0.09
2013-2-11,40.2,35.2,32.2,37.5,30.6,20.0,93,84,60,18.39,18.39,23,12,37,0.08
2013-2-12,34.2,31.9,29.6,29.3,26.9,24.2,88,82,76,18.39,18.39,7,4,20,0.00
2013-2-13,35.3,30.3,25.8,26.5,24.3,21.3,86,78,68,18.39,18.39,6,2,10,0.01
2013-2-14,37.9,32.0,23.4,32.7,27.6,19.5,94,84,67,18.39,18.39,13,6,21,0.01
2013-2-15,37.0,34.3,26.0,33.0,28.2,22.0,92,78,68,18.39,18.39,11,5,19,0.00
2013-2-16,25.7,22.2,16.2,22.4,17.3,11.9,91,81,68,18.39,18.39,6,2,15,0.00
2013-2-17,18.6,14.1,10.3,12.0,9.3,5.3,91,81,70,18.39,18.39,10,6,23,0.01
2013-2-18,28.6,18.7,10.1,17.9,13.6,8.0,92,81,63,18.39,18.39,13,4,21,0.03
2013-2-19,35.0,31.4,24.7,32.9,25.7,17.6,94,80,62,18.39,18.39,22,10,32,0.01
2013-2-20,24.8,20.4,18.0,18.6,15.9,13.3,92,83,73,18.39,18.39,7,5,22,0.01
2013-2-21,18.6,16.3,13.3,16.7,13.6,11.2,93,89,82,18.39,18.39,10,4,23,0.00
2013-2-22,33.3,24.7,11.6,26.6,20.7,9.7,94,85,74,18.39,18.39,22,7,32,0.00
2013-2-23,36.2,33.7,30.1,34.5,31.3,26.0,95,91,82,18.39,18.39,18,9,33,0.01
2013-2-24,30.4,29.3,28.3,28.5,26.5,24.6,94,89,82,18.39,18.39,6,2,13,0.04
2013-2-25,35.6,30.3,24.1,30.4,27.1,21.2,93,88,78,18.39,18.39,5,2,12,0.01
2013-2-26,39.1,32.8,23.1,31.8,27.8,20.3,93,82,69,18.39,18.39,12,6,28,0.17
2013-2-27,36.8,34.3,32.8,35.0,32.6,31.2,95,93,90,18.39,18.39,9,3,19,0.83
2013-2-28,34.7,33.1,32.3,33.4,31.8,31.0,95,95,95,18.39,18.39,4,1,9,0.40
2013-3-1,30.2,27.6,24.9,28.8,26.0,23.2,95,94,92,18.39,18.39,8,4,18,0.05
2013-3-2,25.1,23.1,21.5,23.6,21.4,20.0,94,93,91,18.39,18.39,6,4,13,0.00
2013-3-3,23.7,21.4,19.7,20.9,19.3,17.7,94,92,86,18.39,18.39,5,3,13,0.02
2013-3-4,26.7,23.5,20.3,23.4,20.4,18.3,93,88,81,18.39,18.39,7,5,19,0.00
2013-3-5,30.9,26.4,19.5,26.1,23.1,16.8,93,87,80,18.39,18.39,8,2,14,0.04
2013-3-6,37.1,33.8,29.3,32.0,28.3,25.2,87,80,69,18.39,18.39,11,6,18,0.00
2013-3-7,36.2,32.1,26.8,29.4,26.1,23.4,91,78,71,18.39,18.39,8,3,13,0.00
2013-3-8,34.0,29.3,25.7,27.9,25.1,22.4,94,84,72,18.39,18.39,11,6,22,0.03
2013-3-9,42.1,32.4,23.8,32.6,27.4,21.3,95,83,63,18.39,18.39,8,1,9,0.00
2013-3-10,52.1,43.9,34.1,33.3,29.2,26.0,74,57,46,0.00,40.00,16,9,25,0.00
2013-3-11,50.0,46.3,43.9,38.4,33.5,29.2,70,61,52,18.39,18.39,15,11,25,0.00
2013-3-12,49.9,37.6,34.0,47.7,35.4,31.1,94,92,88,18.39,18.39,7,2,15,0.34
2013-3-13,36.1,32.0,24.8,31.6,26.3,18.8,93,79,67,18.39,18.39,8,3,19,0.06
2013-3-14,29.6,24.5,17.4,19.8,15.8,11.8,91,70,50,18.39,18.39,11,7,26,0.00
2013-3-15,34.2,28.8,22.0,30.8,23.7,16.4,91,81,68,18.39,18.39,9,5,18,0.00
2013-3-16,29.4,24.5,15.2,23.7,19.6,12.4,89,81,74,18.39,18.39,8,2,18,0.00
2013-3-17,29.3,22.3,14.6,21.9,17.5,12.0,93,82,68,18.39,18.39,6,2,11,0.01
2013-3-18,32.5,24.4,16.3,26.1,17.4,9.6,94,76,49,18.39,18.39,17,8,29,0.00
2013-3-19,40.1,30.9,25.8,36.1,27.9,20.3,94,89,71,18.39,18.39,14,6,29,0.07
2013-3-20,31.0,25.8,21.5,26.4,21.6,19.3,92,84,72,18.39,18.39,7,3,17,0.01
2013-3-21,27.1,25.3,24.2,22.5,20.5,16.4,92,82,65,18.39,18.39,4,2,9,0.01
2013-3-22,29.1,26.7,23.8,26.2,24.2,21.8,93,90,87,18.39,18.39,7,3,16,0.00
2013-3-23,34.4,30.1,27.9,27.1,25.5,23.4,91,83,69,18.39,18.39,9,4,21,0.00
2013-3-24,36.3,30.4,20.5,29.2,25.0,18.5,94,81,68,18.39,18.39,5,2,13,0.01
2013-3-25,39.3,35.6,29.7,30.9,28.8,24.8,87,77,64,18.39,18.39,6,3,12,0.00
2013-3-26,41.8,34.1,29.9,34.0,29.7,26.1,93,84,63,18.39,18.39,8,2,16,0.01
2013-3-27,42.9,35.2,31.3,35.6,31.2,28.1,94,85,66,18.39,18.39,8,2,17,0.02
2013-3-28,40.6,35.4,31.5,38.2,32.5,30.0,94,89,78,18.39,18.39,5,2,12,0.07
2013-3-29,43.4,37.4,31.1,36.6,33.0,27.9,92,84,72,18.39,18.39,5,1,11,0.00
2013-3-30,49.0,38.5,27.7,34.2,29.7,24.9,91,72,44,18.39,18.39,4,1,12,0.00
2013-3-31,50.1,41.0,33.9,40.8,33.8,26.1,94,76,58,18.39,18.39,21,9,32,0.25
2013-4-10,49.8,45.8,40.8,48.1,44.2,39.5,95,94,94,18.39,18.39,11,3,18,0.81
2013-4-11,40.7,36.0,33.2,39.4,34.4,31.1,95,94,87,18.39,18.39,8,4,15,0.07
2013-4-12,45.9,40.5,36.5,44.0,38.9,34.8,95,94,92,18.39,18.39,18,8,28,0.29
2013-4-13,44.2,40.5,37.4,38.4,36.3,34.3,94,85,70,18.39,18.39,13,4,20,0.05
2013-4-14,45.3,38.2,33.7,35.3,32.0,29.6,92,79,61,18.39,18.39,6,2,13,0.03
2013-4-15,65.0,49.5,36.3,49.9,40.1,29.4,81,70,57,18.39,18.39,17,10,24,0.01
2013-4-16,61.2,53.3,43.8,57.3,49.2,38.8,94,86,75,18.39,18.39,20,13,28,0.33
2013-4-17,53.5,45.3,35.6,42.1,37.0,32.4,89,73,58,18.39,18.39,6,2,15,0.08
2013-4-18,61.6,53.0,42.5,55.0,44.4,35.3,90,73,59,18.39,18.39,23,13,33,0.00
2013-4-19,70.0,65.5,58.2,61.5,59.1,55.0,89,80,74,18.39,18.39,25,20,37,0.00
2013-4-20,39.7,35.1,31.7,33.1,27.7,25.6,84,75,62,18.39,18.39,7,4,19,0.00
2013-4-21,42.4,34.7,27.8,29.0,25.8,22.6,90,71,53,18.39,18.39,8,3,15,0.00
2013-4-22,55.0,44.1,32.8,34.8,28.8,24.5,75,56,38,18.39,18.39,11,6,18,0.00
2013-4-23,56.8,46.0,34.6,41.7,34.7,26.9,84,65,46,18.39,18.39,13,7,23,0.00
2013-4-24,64.6,51.3,40.0,54.9,46.0,35.9,91,82,66,18.39,18.39,19,9,30,0.18
2013-4-25,52.8,43.9,35.5,38.5,34.1,31.1,88,70,44,18.39,18.39,7,2,16,0.18
2013-4-26,52.1,43.1,34.6,38.4,35.5,32.1,93,76,50,18.39,18.39,6,1,14,0.09
2013-4-27,64.2,49.5,34.2,44.7,36.5,30.5,88,64,38,18.39,18.39,7,1,10,0.00
2013-4-28,67.8,57.3,45.6,46.3,41.7,37.0,90,58,37,18.39,18.39,18,6,23,0.13
2013-4-29,55.3,51.9,48.6,51.2,47.7,42.1,93,86,74,18.39,18.39,19,10,28,0.18
2013-4-30,63.2,56.3,51.5,55.1,51.7,48.1,92,85,73,18.39,18.39,15,8,24,0.00
2013-5-1,72.8,61.0,48.3,49.2,41.6,31.5,86,54,29,18.39,18.39,11,5,22,0.00
2013-5-2,73.9,65.9,54.2,50.3,45.5,42.0,72,49,34,18.39,18.39,9,4,16,0.00
2013-5-3,70.8,61.4,51.7,50.2,45.4,37.0,82,57,42,18.39,18.39,15,4,22,0.00
2013-5-4,70.8,59.1,45.4,49.3,42.4,35.8,78,55,37,18.39,18.39,9,3,16,0.00
2013-5-5,73.2,61.7,49.7,49.6,43.0,32.9,75,52,30,18.39,18.39,7,2,14,0.00
2013-5-6,72.9,59.5,44.9,48.5,40.9,32.4,78,53,26,18.39,18.39,11,2,17,0.00
2013-5-7,75.5,64.1,53.0,56.6,51.3,48.2,89,66,39,18.39,18.39,6,2,12,0.00
2013-5-8,66.0,61.1,54.3,59.9,55.8,50.6,93,83,69,18.39,18.39,8,2,15,0.03
2013-5-9,66.8,56.7,49.3,58.3,52.6,47.4,94,87,63,18.39,18.39,9,2,14,0.02
2013-5-10,70.2,60.5,48.6,59.5,54.7,46.7,94,82,61,18.39,18.39,16,5,26,0.36
2013-5-11,59.3,56.7,49.7,57.6,53.5,47.2,94,89,77,18.39,18.39,12,4,19,0.73
2013-5-12,51.0,46.2,37.3,47.2,37.4,30.6,91,72,48,18.39,18.39,9,4,22,0.00
2013-5-13,46.6,40.2,34.7,34.6,31.9,29.5,85,72,59,18.39,18.39,6,3,19,0.01
2013-5-14,53.7,42.5,29.3,37.9,32.6,27.3,93,70,45,18.39,18.39,4,1,11,0.00
2013-5-15,77.8,56.5,40.6,59.6,45.7,31.6,89,68,50,18.39,18.39,20,7,28,0.06
2013-5-16,74.8,64.4,51.8,49.4,44.9,39.8,85,52,31,18.39,18.39,10,4,27,0.00
2013-5-17,61.7,51.3,37.9,46.2,41.7,34.7,92,71,42,18.39,18.39,8,2,16,0.00
2013-5-18,67.2,55.7,40.1,53.7,46.4,37.6,93,73,51,18.39,18.39,9,2,16,0.00
2013-5-19,65.4,59.4,54.2,60.1,55.7,50.8,91,88,81,18.39,18.39,15,9,23,0.00
2013-5-20,80.7,69.5,59.3,67.4,62.1,57.0,93,79,57,18.39,18.39,11,4,16,0.00
2013-5-21,84.8,71.2,62.9,74.2,65.9,60.1,93,84,54,18.39,18.39,11,2,24,0.93
2013-5-22,83.7,71.4,63.4,70.1,64.7,61.3,94,81,58,18.39,18.39,9,2,19,0.95
2013-5-23,73.0,73.0,73.0,65.7,65.7,65.7,78,78,78,18.34,18.34,13,12,19,0.01
2013-5-24,73.0,73.0,73.0,65.7,65.7,65.7,78,78,78,18.34,18.34,13,-546,19,0.01
2013-5-25,52.2,47.6,39.2,41.7,39.3,36.8,91,73,59,18.34,18.34,12,6,21,0.01
2013-5-26,55.0,43.7,40.8,40.4,38.8,37.6,92,84,56,18.34,18.34,3,1,10,0.01
2013-5-27,66.5,53.7,38.1,45.5,40.3,34.7,89,63,39,18.34,18.34,5,1,12,0.00
2013-5-28,57.5,54.7,50.4,54.9,46.6,37.8,93,75,51,18.34,18.34,12,5,18,0.14
2013-5-29,61.7,59.8,56.7,60.0,57.9,54.4,94,93,92,18.34,18.34,8,-152,17,0.14
2013-5-30,81.4,70.3,61.6,70.7,64.7,59.9,94,83,70,18.34,18.34,0,-348,17,0.14
2013-6-7,81.4,68.9,59.5,70.7,61.6,52.2,94,79,70,18.34,18.34,5,-49,17,0.02
2013-6-8,58.9,58.5,58.5,57.2,56.8,56.8,94,94,94,18.34,18.34,1,-490,5,0.04
2013-6-9,58.5,58.5,58.5,56.8,56.8,56.8,94,94,94,0.00,40.00,0,-999,1,0.04
2013-6-10,64.7,63.0,58.5,61.1,58.5,54.0,94,86,72,18.34,18.34,9,-32,11,0.10
2013-6-11,63.1,61.8,58.1,61.3,59.4,55.5,95,92,88,18.34,18.34,5,-94,12,0.19
2013-6-12,69.8,60.0,53.9,59.9,55.0,52.4,95,84,66,18.34,18.34,4,2,13,0.00
2013-6-13,64.8,57.7,55.1,57.2,55.0,53.4,94,91,73,18.34,18.34,12,6,21,0.59
2013-6-14,68.5,60.2,53.0,60.4,56.3,51.6,95,88,72,18.34,18.34,6,2,15,0.00
2013-6-15,71.3,62.6,50.4,57.0,53.0,47.6,94,73,45,18.34,18.34,4,1,12,0.00
2013-6-16,70.7,63.8,57.8,65.8,58.8,51.7,91,84,74,18.34,18.34,11,3,15,0.08
2013-6-17,78.0,66.1,57.4,66.3,60.6,55.4,94,83,53,18.34,18.34,8,1,17,0.11
2013-6-18,65.5,60.1,54.3,59.4,55.7,50.0,94,86,62,18.34,18.34,7,2,12,0.01
2013-6-19,64.5,57.0,47.5,50.0,47.1,43.2,91,71,48,18.34,18.34,7,3,10,0.00
2013-6-20,76.0,61.0,45.6,58.8,50.7,43.2,92,71,50,18.34,18.34,7,2,12,0.00
2013-6-21,79.5,67.6,53.2,64.5,57.5,49.5,89,71,52,18.34,18.34,4,1,6,0.00
2013-6-22,82.2,73.6,63.8,69.0,65.0,60.8,90,76,57,18.34,18.34,10,4,12,0.00
2013-6-23,86.1,73.5,68.6,73.2,68.7,66.2,93,85,62,18.34,18.34,11,4,19,0.94
2013-6-24,84.5,74.6,67.4,73.1,69.1,65.0,93,84,65,18.34,18.34,10,2,16,0.00
2013-6-25,81.4,73.1,66.1,71.5,67.6,63.3,92,83,70,18.34,18.34,6,1,16,0.00
2013-6-26,79.7,72.0,68.0,70.3,67.1,64.6,92,85,70,18.34,18.34,6,1,13,0.02
2013-6-27,78.6,70.2,63.1,71.1,66.6,61.3,94,89,75,18.34,18.34,10,1,20,0.34
2013-6-28,66.9,65.3,64.0,65.0,63.6,62.2,95,94,93,18.34,18.34,7,0,15,0.53
2013-6-29,70.4,66.5,62.4,67.0,64.2,60.9,95,92,84,18.34,18.34,11,2,20,0.09
2013-6-30,77.2,68.0,59.9,69.4,64.4,58.5,95,89,73,18.34,18.34,7,1,12,0.01
2013-7-1,69.3,67.2,64.9,67.5,65.4,62.8,95,94,92,18.34,18.34,2,0,8,0.35
2013-7-2,78.9,70.5,61.9,74.1,68.0,60.5,96,92,82,18.34,18.34,10,2,16,0.06
2013-7-3,83.5,75.2,69.0,74.5,70.7,67.2,94,86,68,18.34,18.34,8,4,15,0.00
2013-7-4,81.9,75.5,71.3,74.7,71.7,69.2,94,88,72,18.34,18.34,8,2,13,0.07
2013-7-5,84.8,75.8,69.2,76.2,71.6,67.4,94,87,70,18.34,18.34,9,2,14,1.22
2013-7-6,82.1,73.8,67.2,72.5,68.5,65.4,94,85,60,18.34,18.34,2,0,9,0.00
2013-7-7,84.2,75.8,70.7,74.2,71.2,68.6,94,86,69,18.34,18.34,6,1,11,0.38
2013-7-8,80.1,72.5,67.3,72.6,68.6,65.2,94,88,74,18.34,18.34,3,0,10,0.03
2013-7-9,80.3,72.4,67.4,73.3,69.1,65.6,94,90,74,18.34,18.34,10,2,20,0.43
2013-7-10,82.0,73.0,66.3,74.9,70.0,64.2,94,90,76,18.34,18.34,11,4,17,0.17
2013-7-11,74.2,67.9,62.5,66.0,63.0,59.7,93,85,72,18.34,18.34,4,1,10,0.01
2013-7-12,74.6,67.8,61.8,65.1,62.3,59.9,94,83,66,18.34,18.34,6,1,13,0.00
2013-7-13,75.9,70.1,64.6,70.8,66.5,61.9,93,89,81,18.34,18.34,6,2,14,0.00
2013-7-14,84.6,75.7,66.5,76.1,70.9,64.7,94,86,71,18.34,18.34,4,1,9,0.00
2013-7-15,86.3,77.1,68.1,75.1,71.6,65.4,94,84,69,18.34,18.34,3,1,12,0.00
2013-7-16,86.7,75.9,66.1,73.3,68.8,64.0,93,80,58,18.34,18.34,5,1,12,0.00
2013-7-17,89.8,77.2,66.5,77.6,72.0,64.5,94,85,61,18.34,18.34,4,1,15,0.14
2013-7-18,86.9,76.2,70.9,77.6,72.8,69.0,94,90,72,18.34,18.34,6,0,12,0.16
2013-7-19,89.2,79.4,70.5,77.4,72.4,66.7,94,80,61,18.34,18.34,9,3,22,0.06
2013-7-20,74.6,69.6,62.3,69.2,66.1,60.4,94,89,75,18.34,18.34,8,1,13,0.21
2013-7-21,75.3,68.3,60.5,65.4,62.3,58.8,95,82,64,18.34,18.34,6,1,12,0.00
2013-7-22,80.4,69.6,61.1,72.8,65.6,59.4,94,87,74,18.34,18.34,5,1,10,0.07
2013-7-23,79.6,70.9,65.8,70.6,66.9,64.1,95,88,68,18.34,18.34,3,0,8,0.44
2013-7-24,70.4,60.2,50.6,67.0,55.4,48.7,93,84,74,18.34,18.34,8,2,15,0.00
2013-7-25,70.1,59.1,47.7,57.9,52.3,46.3,95,80,58,18.34,18.34,9,2,17,0.01
2013-7-26,74.2,63.0,50.4,62.5,56.2,48.7,95,80,56,18.34,18.34,3,0,9,0.00
2013-7-27,76.6,68.3,57.8,69.4,62.6,54.8,94,83,67,18.34,18.34,11,4,20,0.27
2013-7-28,72.6,66.3,58.7,66.2,63.6,57.0,95,91,76,18.34,18.34,7,2,13,0.30
2013-7-29,68.7,61.1,56.3,59.9,57.1,54.7,96,87,69,18.34,18.34,6,1,12,0.00
2013-7-30,58.6,56.5,53.7,56.6,54.7,52.0,94,94,92,18.34,18.34,1,0,5,0.01
2013-7-31,74.7,69.9,59.7,63.1,61.1,58.3,95,75,61,18.34,18.34,5,2,9,0.01
2013-8-1,74.1,66.3,58.7,68.3,63.0,57.0,94,89,79,18.34,18.34,9,2,16,0.13
2013-8-2,72.9,63.4,55.2,64.0,60.0,53.8,95,89,66,18.34,18.34,8,1,16,0.24
2013-8-3,74.5,66.3,59.9,62.9,59.4,55.3,94,80,55,18.34,18.34,6,1,15,0.01
2013-8-4,68.0,61.6,54.9,60.8,56.5,51.7,94,84,66,18.34,18.34,8,2,19,0.00
2013-8-5,70.3,59.7,48.3,60.3,53.5,46.7,95,82,57,18.34,18.34,3,0,12,0.00
2013-8-6,73.7,64.6,54.9,62.0,57.1,51.8,91,77,58,18.34,18.34,8,3,15,0.00
2013-8-7,70.9,66.2,61.1,66.9,63.3,58.8,94,90,86,18.34,18.34,13,7,21,0.00
2013-8-8,81.2,70.2,65.1,73.7,67.1,63.3,94,90,77,18.34,18.34,9,3,14,1.23
2013-8-9,72.7,68.6,61.5,70.9,66.8,59.5,95,94,91,18.34,18.34,7,1,10,0.21
2013-8-10,70.7,63.7,52.9,62.0,57.8,50.5,95,82,61,18.34,18.34,4,1,14,0.01
2013-8-11,71.9,62.2,51.8,62.1,55.7,49.8,94,81,59,18.34,18.34,3,0,11,0.00
2013-8-12,75.3,65.7,55.6,65.6,60.3,53.6,94,83,63,18.34,18.34,6,0,11,0.00
2013-8-13,72.9,64.2,56.1,67.1,60.8,51.2,95,89,77,18.34,18.34,7,1,13,0.74
2013-8-14,64.4,56.9,49.7,56.6,51.9,47.8,94,84,66,18.34,18.34,8,2,20,0.01
2013-8-15,50.9,49.1,48.2,49.5,47.4,46.6,95,94,93,18.34,18.34,1,0,3,0.01
2013-8-20,79.9,70.3,56.3,67.3,62.7,54.9,95,78,58,18.34,18.34,2,0,9,0.00
2013-8-21,80.9,69.3,57.6,68.0,62.7,55.9,95,81,56,18.34,18.34,3,0,7,0.00
2013-8-22,82.7,71.0,61.7,71.6,66.1,59.4,94,85,66,18.34,18.34,5,1,19,0.00
2013-8-23,71.5,64.0,54.9,63.2,58.8,53.0,94,84,65,18.34,18.34,4,1,12,0.00
2013-8-24,71.0,60.4,49.1,58.8,53.8,47.4,95,81,55,18.34,18.34,3,0,15,0.00
2013-8-25,77.5,66.1,50.9,63.5,58.0,49.2,94,77,55,18.34,18.34,8,2,17,0.00
2013-8-26,75.9,69.1,65.1,70.2,66.2,61.9,94,90,81,18.34,18.34,4,1,8,0.28
2013-8-27,78.7,70.3,63.7,72.5,67.6,62.0,95,91,79,18.34,18.34,1,0,13,0.43
2013-8-28,79.0,71.5,66.1,73.5,68.8,64.2,95,91,79,18.34,18.34,5,0,9,0.03
2013-8-29,79.5,68.9,59.8,71.8,65.9,58.4,95,90,73,18.34,18.34,5,0,11,0.34
2013-8-30,81.2,69.5,59.1,69.4,64.2,57.7,96,84,59,18.34,18.34,6,1,11,0.07
2013-8-31,81.3,73.2,66.7,74.7,69.8,65.2,95,89,74,18.34,18.34,5,1,11,0.04
2013-9-1,78.4,71.3,64.2,72.4,68.0,62.7,95,90,79,18.34,18.34,11,1,11,0.11
2013-9-2,80.7,70.4,64.3,74.2,67.5,62.2,95,91,77,18.34,18.34,9,2,20,0.46
2013-9-3,65.2,62.2,59.5,62.1,58.5,57.1,94,88,77,18.34,18.34,4,1,12,0.18
2013-9-4,75.2,68.2,53.1,61.9,59.0,51.7,95,73,59,18.34,18.34,6,1,13,0.03
2013-9-5,66.6,58.6,46.9,61.3,50.9,43.8,92,76,57,18.34,18.34,6,1,15,0.05
2013-9-6,65.0,53.5,42.8,52.4,46.2,41.2,95,78,50,18.34,18.34,4,0,9,0.01
2013-9-7,65.3,59.4,52.2,59.3,53.5,46.7,92,81,66,18.34,18.34,5,1,9,0.01
2013-9-8,61.7,57.6,46.3,60.2,52.2,44.2,95,83,60,18.34,18.34,10,2,22,0.01
2013-9-9,70.3,54.4,44.3,58.9,48.1,41.8,94,81,61,18.34,18.34,12,4,21,0.00
2013-9-10,84.6,75.5,65.0,77.0,71.5,63.2,95,88,77,18.34,18.34,11,5,19,0.01
2013-9-11,88.3,76.7,68.6,77.1,72.1,66.7,94,86,63,18.34,18.34,11,3,12,0.37
2013-9-12,73.3,69.8,67.4,70.6,67.7,65.6,95,93,88,18.34,18.34,6,2,8,0.11
2013-9-13,54.9,51.3,48.0,53.6,49.9,46.9,96,95,94,18.36,18.36,6,3,15,0.16
2013-9-14,52.4,49.0,44.7,47.9,46.7,43.3,96,92,84,18.36,18.36,6,-34,10,0.06
2013-9-15,62.1,53.9,43.8,54.5,49.2,42.2,95,85,65,18.36,18.36,7,-13,14,0.03
2013-9-16,55.5,49.7,42.8,53.2,47.6,40.1,95,93,84,18.36,18.36,6,1,18,0.02
2013-9-17,60.7,50.8,35.6,50.2,44.5,34.3,96,80,60,18.36,18.36,5,1,14,0.02
2013-9-18,68.2,55.2,44.6,52.3,46.9,41.9,94,75,50,18.36,18.36,9,2,20,0.02
2013-9-19,72.6,61.2,50.1,57.8,51.5,46.1,87,72,50,18.36,18.36,6,1,14,0.03
2013-9-20,75.3,65.0,56.0,64.1,58.6,52.5,94,81,65,18.36,18.36,12,5,21,0.03
2013-9-21,65.9,61.2,56.4,62.0,58.5,54.7,95,91,82,18.36,18.36,17,8,30,0.06
2013-9-22,55.4,50.3,47.0,54.0,46.9,43.4,95,88,74,18.36,18.36,6,2,18,0.04
2013-9-23,53.8,47.5,41.4,45.2,43.4,39.5,94,86,71,18.36,18.36,4,1,13,0.03
2013-9-24,60.0,47.4,38.5,49.5,43.4,37.1,95,87,58,18.36,18.36,5,1,14,0.04
2013-9-25,65.2,51.3,39.7,55.4,46.7,38.4,95,85,64,18.36,18.36,4,0,11,0.03
2013-9-26,66.0,54.0,44.1,55.8,49.9,42.8,95,87,66,18.36,18.36,6,1,11,0.07
2013-9-27,65.8,54.0,42.9,58.0,50.4,41.6,96,88,69,18.30,18.30,4,0,10,0.00
2013-9-28,67.9,56.3,47.0,57.7,51.4,45.4,95,85,65,18.30,18.30,8,2,15,0.00
2013-9-29,68.3,58.3,50.1,55.8,51.3,47.5,92,79,58,18.30,18.30,11,3,21,0.00
2013-9-30,73.1,60.7,52.7,59.8,54.0,48.8,89,79,58,18.30,18.30,5,1,10,0.00
2013-10-1,72.3,61.0,53.7,61.7,56.5,51.7,95,86,63,18.30,18.30,3,0,11,0.00
2013-10-2,74.0,62.3,53.9,65.2,58.0,51.9,94,86,65,18.30,18.30,4,1,11,0.00
2013-10-3,68.9,59.2,45.9,57.2,51.3,44.5,95,77,47,18.30,18.30,3,0,9,0.00
2013-10-4,74.6,65.9,62.0,69.4,63.3,56.2,95,91,76,18.30,18.30,4,0,9,0.13
2013-10-5,67.6,62.6,61.2,65.8,61.1,59.8,96,95,93,18.30,18.30,6,0,11,0.04
2013-10-6,79.1,68.3,61.4,71.3,65.1,60.0,96,90,71,18.30,18.30,12,4,24,0.09
2013-10-7,70.1,60.9,50.8,65.4,56.7,44.9,95,86,68,18.30,18.30,16,7,31,1.19
2013-10-8,60.7,51.7,47.0,51.1,46.8,45.1,94,84,60,18.30,18.30,3,0,9,0.00
2013-10-9,65.0,51.1,39.7,50.8,43.9,38.1,95,79,38,18.30,18.30,8,1,11,0.00
2013-10-10,62.1,52.2,43.3,52.2,46.0,40.0,92,80,59,18.30,18.30,3,0,7,0.00
2013-10-11,63.9,55.9,48.7,57.3,49.2,42.5,92,79,62,18.30,18.30,5,1,7,0.07
2013-10-12,72.1,57.1,42.5,52.9,45.2,38.6,92,68,33,18.30,18.30,5,1,9,0.00
2013-10-13,66.8,59.4,53.1,56.2,53.0,49.8,91,80,68,18.30,18.30,12,6,15,0.00
2013-10-19,58.0,52.1,46.0,48.2,46.0,41.8,94,80,64,18.30,18.30,15,7,21,0.07
2013-10-20,49.9,45.4,40.1,42.7,41.0,36.8,94,85,74,18.30,18.30,6,2,16,0.00
2013-10-21,62.3,50.5,41.6,45.5,41.9,39.2,93,74,46,18.30,18.30,14,6,24,0.00
2013-10-22,50.2,44.2,38.5,46.4,38.1,33.8,92,80,59,18.30,18.30,5,1,20,0.03
2013-10-23,47.2,40.1,34.9,38.5,36.1,33.3,95,86,65,18.30,18.30,4,1,12,0.08
2013-10-24,45.3,38.9,32.5,36.6,34.1,31.0,94,83,63,18.30,18.30,8,4,19,0.01
2013-10-25,45.1,39.7,35.0,39.1,36.6,33.4,95,89,77,18.30,18.30,4,1,16,0.13
2013-10-26,45.3,41.2,38.2,36.3,32.7,29.5,89,72,55,18.30,18.30,17,10,30,0.01
2013-10-27,45.3,41.7,37.4,38.0,35.7,32.0,90,79,71,18.30,18.30,8,2,14,0.00
2013-10-28,47.5,40.8,32.0,41.0,34.6,26.6,86,79,67,18.30,18.30,7,2,14,0.00
2013-10-29,43.8,34.9,25.9,33.2,28.5,23.9,93,78,57,18.30,18.30,2,0,7,0.00
2013-10-30,55.4,44.6,37.2,43.7,38.6,31.3,93,80,62,18.30,18.30,2,0,5,0.02
2013-10-31,58.8,53.1,47.1,57.0,50.8,41.7,95,92,81,18.30,18.30,21,10,27,0.35
2013-11-1,62.9,57.7,49.7,58.4,50.4,42.5,95,78,53,18.30,18.30,21,10,35,0.11
2013-11-2,52.3,45.9,35.4,46.1,42.4,33.8,95,88,72,18.30,18.30,5,2,16,0.07
2013-11-3,35.3,31.7,25.5,33.7,27.5,21.1,94,84,70,18.30,18.30,6,2,14,0.00
2013-11-4,40.6,32.5,22.7,25.9,22.0,19.8,91,67,46,18.30,18.30,12,2,20,0.00
2013-11-5,50.3,42.1,34.0,40.3,32.2,23.1,81,68,60,18.30,18.30,15,11,27,0.00
2013-11-6,55.0,50.1,44.6,47.6,44.6,40.0,90,82,76,18.30,18.30,18,-318,26,0.00
2013-11-7,54.9,54.9,54.9,47.5,47.5,47.5,76,76,76,18.30,18.30,0,-999,26,0.00
2013-11-15,54.9,45.8,39.7,47.5,28.6,27.1,76,51,37,18.30,18.30,8,-8,26,0.00
2013-11-16,56.0,43.1,35.2,41.0,33.3,29.0,86,69,56,18.30,18.30,9,1,9,0.00
2013-11-17,56.0,56.0,56.0,41.0,41.0,41.0,57,57,57,0.00,40.00,9,9,9,0.00
2013-11-18,56.0,56.0,56.0,41.0,41.0,41.0,57,57,57,0.00,40.00,9,9,9,0.00
2013-11-19,56.0,56.0,56.0,41.0,41.0,41.0,57,57,57,0.00,40.00,0,-999,0,0.00
2013-11-20,56.0,56.0,56.0,41.0,41.0,41.0,57,57,57,0.00,40.00,0,-999,0,0.00
2013-11-21,56.0,36.9,30.4,41.0,25.1,19.7,64,62,57,18.30,18.30,12,-759,12,0.00
2013-11-22,30.4,30.4,30.4,19.7,19.7,19.7,64,64,64,18.30,18.30,2,-817,2,0.00
2013-12-31,21.9,17.0,13.8,19.1,12.1,8.2,92,81,76,28.85,28.63,8,4,22,0.00
2014-1-1,20.7,16.9,14.5,13.8,11.6,9.1,91,80,68,28.99,28.85,7,2,12,0.00
2014-1-2,14.6,10.4,0.8,12.5,8.3,-1.5,92,91,89,28.88,28.51,9,4,13,0.00